Wind_Speed
20 20 20 18 15 12 11 9 10 13 15 22 23 17 15 15 14 8 9 8 6 7 9 13 15 18 19 25 28 33 35 38 40 43 46 38 37 34 35 37 39 38 39 39
19 21 20 18 17 15 14 13 13 9 14 16 19 22 20 18 12 8 10 10 10 12 13 15 17 20 22 26 31 34 37 40 43 46 40 37 34 34 35 36 36 36 35 34
20 13 19 19 20 19 21 23 19 11 12 14 16 15 17 16 12 11 12 12 14 16 14 14 17 21 23 28 32 35 38 41 44 38 34 30 29 29 29 29 30 32 33 32
17 15 13 13 14 15 15 15 17 16 12 6 16 4 16 15 14 13 12 12 18 15 13 15 18 20 26 29 32 35 39 42 37 33 31 29 29 31 32 33 34 33 32 31
12 17 13 12 11 10 11 11 6 9 12 5 13 5 8 16 17 14 9 11 13 12 12 15 17 23 27 30 32 36 40 35 31 29 27 26 28 30 31 32 32 31 30 30
16 14 13 9 8 11 11 7 10 8 5 5 8 8 9 17 16 12 11 11 10 11 12 15 19 25 27 30 33 37 32 28 27 25 24 26 29 31 31 30 30 30 30 30
19 17 16 10 11 10 10 12 5 2 4 4 6 7 13 13 13 12 8 4 8 12 12 16 20 25 26 30 34 29 26 25 23 23 25 27 29 31 32 32 31 28 27 28
14 12 17 14 15 15 18 17 6 6 5 3 6 8 9 16 15 14 12 6 6 10 12 16 20 23 27 30 26 23 24 23 24 24 24 27 29 30 32 31 30 29 27 27
11 7 14 16 18 16 18 19 14 5 6 3 5 12 16 17 18 17 13 7 4 6 12 16 22 22 27 25 21 23 23 23 23 23 24 26 28 30 30 29 28 27 27 26
2 4 10 16 18 16 14 17 6 5 6 5 5 9 15 15 23 20 11 7 5 8 13 17 20 25 26 19 20 21 21 21 22 22 23 26 28 31 31 29 27 26 26 27
10 4 9 14 12 17 13 16 7 7 5 3 3 6 10 10 12 17 10 8 7 10 16 17 21 23 18 18 19 20 20 21 22 22 23 25 27 29 30 28 26 26 27 27
15 5 10 10 10 14 13 11 13 8 6 6 3 5 3 7 16 17 12 9 9 12 15 16 20 20 15 17 18 19 19 20 21 21 21 23 25 27 28 27 26 27 27 28
18 9 10 6 6 11 11 11 11 7 4 6 3 3 5 9 17 18 16 11 10 12 14 18 18 15 14 16 17 18 18 18 20 20 19 21 23 25 26 27 27 25 25 25
17 14 13 13 12 11 14 13 8 4 1 3 5 9 6 9 15 15 15 10 12 13 15 14 15 11 12 15 16 17 17 16 18 18 18 19 21 23 25 26 27 26 24 23
17 11 12 6 10 12 11 11 6 2 3 0 5 3 4 8 8 11 13 11 12 13 14 12 10 10 11 13 15 15 15 14 15 17 17 18 19 21 24 24 25 25 25 25
16 9 12 13 11 11 13 11 5 5 2 2 2 2 4 10 12 13 11 12 12 15 11 10 8 9 11 12 13 14 14 13 13 14 16 16 17 20 22 23 23 23 25 26
17 13 15 11 11 12 10 12 6 6 1 1 3 3 2 4 6 8 8 11 13 13 10 7 7 9 10 11 11 12 12 12 11 12 13 14 15 17 20 22 22 22 23 24
12 13 10 10 14 4 7 14 8 6 4 2 4 4 3 5 6 8 10 12 12 12 9 5 6 8 9 10 10 11 11 11 10 10 11 12 14 15 17 19 21 22 23 23
8 11 4 7 18 7 7 14 11 9 5 4 3 5 5 6 8 8 8 10 11 11 8 4 5 7 8 8 9 10 11 10 10 10 10 11 13 15 17 20 18 20 23 24
19 12 12 11 5 6 8 10 13 9 9 3 2 6 6 6 8 5 8 8 10 10 7 4 4 6 7 7 8 10 11 11 11 10 10 11 13 15 18 21 21 22 23 25
14 12 12 15 10 7 12 11 13 7 4 3 4 5 6 5 7 7 7 7 9 8 7 5 4 5 5 6 8 9 10 11 12 11 10 11 13 15 17 18 20 23 23 25
11 11 10 12 10 8 11 13 14 8 6 6 6 7 7 6 7 7 5 7 7 7 7 5 3 4 4 5 6 8 10 11 11 12 11 11 12 15 17 18 19 15 21 24
10 7 4 7 6 5 4 7 9 11 10 9 8 8 7 6 7 6 4 6 7 7 6 5 3 3 4 6 7 8 10 11 12 12 13 13 14 15 17 17 17 19 19 21
10 9 5 6 3 4 5 8 11 11 10 9 9 8 6 6 7 5 4 5 6 6 6 5 2 3 5 7 8 9 10 12 13 12 12 13 14 16 17 18 16 17 19 21
11 11 7 5 2 3 6 9 12 11 10 10 10 8 6 6 5 4 4 5 5 6 7 4 2 4 5 6 7 8 10 12 13 13 13 14 14 15 16 17 16 17 19 19
13 9 7 3 1 4 7 3 8 9 10 11 9 7 6 5 5 4 4 4 5 6 7 4 2 3 5 6 7 8 10 12 13 13 13 14 14 15 15 15 15 18 18 18
Wind_Direction
181 190 190 207 222 242 214 197 201 225 232 230 237 247 260 228 205 193 191 219 263 274 303 302 326 334 341 343 342 337 330 327 330 333 334 334 333 333 332 329 327 326 324 322
203 211 208 216 214 208 216 225 222 213 233 230 234 239 239 222 212 205 207 225 277 283 288 306 321 334 340 340 335 329 327 329 332 334 334 334 335 337 335 334 330 326 324 322
213 233 224 215 222 227 240 239 257 249 201 199 207 210 215 229 231 217 214 223 257 267 290 312 317 329 337 334 328 325 325 329 332 332 333 334 338 337 335 333 331 331 333 332
220 209 177 187 200 212 227 244 262 257 190 180 174 219 231 239 237 221 215 235 256 267 285 304 311 327 332 325 323 325 326 329 331 334 335 340 344 344 343 343 342 340 339 338
215 200 209 194 208 214 233 257 232 197 196 163 208 248 260 225 228 227 240 247 254 267 289 298 312 330 323 322 322 324 327 330 333 335 339 346 347 348 348 346 343 341 340 342
208 184 201 210 170 201 221 191 131 149 179 245 200 218 256 244 242 237 241 226 256 268 290 311 330 321 317 318 321 325 327 331 336 338 346 350 350 351 351 349 346 344 342 342
213 199 211 208 189 171 192 185 105 155 205 254 225 217 252 241 232 223 225 234 281 273 290 330 322 317 312 317 323 325 330 338 340 348 352 351 352 356 353 351 352 352 351 350
200 209 214 199 202 199 194 198 182 199 206 214 209 239 241 238 219 205 193 228 286 291 289 321 319 312 314 322 325 331 340 342 349 353 352 353 358 359 357 355 356 357 357 359
196 173 187 185 198 200 206 210 241 151 140 192 216 255 255 236 214 204 204 223 291 284 300 307 312 308 319 325 332 339 342 349 351 351 355 358 1 1 2 1 3 3 3 6
174 159 181 187 190 208 213 214 174 181 160 226 237 259 241 236 217 208 211 225 271 282 287 304 299 313 324 331 336 344 346 352 351 355 357 0 3 5 6 7 8 9 10 10
221 218 163 189 190 200 187 199 201 199 180 229 209 242 270 238 215 210 217 232 265 278 280 288 306 319 328 335 341 345 350 354 358 359 2 6 5 6 9 10 14 17 18 16
205 187 172 181 181 190 199 210 224 228 212 207 231 257 259 218 191 205 226 245 264 279 280 297 312 325 333 335 343 349 352 357 1 3 6 9 9 8 12 15 16 18 16 17
213 203 131 130 161 190 200 220 224 221 184 195 235 275 284 209 192 204 222 246 264 279 284 306 317 326 331 337 346 350 351 357 2 5 8 11 10 10 14 17 17 15 14 18
190 189 197 190 198 208 211 209 180 177 188 233 243 284 275 208 204 206 224 241 261 275 298 306 320 324 334 340 346 349 351 353 0 4 8 11 11 12 16 19 19 18 16 17
195 213 202 231 244 230 219 193 176 145 104 190 279 259 213 182 193 215 232 244 262 286 298 309 319 325 338 340 343 348 348 349 357 2 8 10 11 12 16 19 21 20 21 21
194 197 185 234 225 196 183 181 176 166 73 76 355 241 223 198 207 212 225 241 261 292 297 312 318 327 337 338 344 344 345 347 354 0 8 7 11 12 12 13 18 22 25 25
188 197 173 167 188 180 183 191 192 190 195 262 356 337 268 217 200 216 240 250 273 293 294 307 313 324 333 335 340 339 344 345 352 358 4 5 8 9 8 7 10 14 21 25
196 182 184 169 165 216 228 202 217 222 232 265 290 319 276 220 207 220 242 259 283 288 287 290 304 318 330 328 334 337 342 344 349 356 358 2 3 2 3 2 359 4 13 19
150 153 191 178 197 251 217 213 224 232 249 282 287 305 283 246 235 247 261 267 279 276 273 267 293 313 321 324 331 336 342 344 348 354 350 355 356 353 354 353 356 2 5 9
169 196 205 196 187 229 226 219 214 229 279 226 339 329 291 273 259 266 262 271 275 264 249 259 285 309 312 318 332 339 345 348 348 350 346 349 347 346 349 350 357 357 359 1
175 179 196 222 218 242 228 209 213 210 246 243 310 316 294 275 260 271 272 277 266 248 226 247 272 297 300 325 335 344 349 351 349 345 345 342 338 341 344 351 353 354 350 357
196 200 204 210 214 243 216 206 201 233 238 256 291 306 295 281 275 274 278 280 257 224 224 230 258 293 319 326 334 345 349 350 351 343 340 335 332 335 340 345 344 340 347 345
194 206 183 200 217 212 159 211 235 241 247 261 282 300 300 287 278 270 280 269 243 221 227 222 251 305 321 331 341 344 348 349 348 344 340 336 333 332 335 338 343 344 344 344
207 194 171 175 190 210 250 252 245 242 246 256 282 291 290 282 277 271 273 256 235 227 222 222 234 307 320 328 338 345 347 346 344 342 342 339 334 330 331 334 336 339 345 346
204 190 180 178 218 304 293 263 249 244 253 266 278 280 276 274 268 258 254 242 229 231 228 227 245 299 311 326 336 343 343 343 341 340 342 341 337 330 330 328 335 339 341 348
196 184 196 214 291 351 359 314 236 245 256 267 268 270 268 259 243 239 246 237 222 225 227 225 251 282 299 316 331 338 342 337 334 338 338 340 339 336 333 334 333 337 344 347
Height
3170 3173 3174 3174 3176 3179 3181 3181 3183 3183 3185 3186 3186 3187 3188 3190 3191 3192 3192 3191 3191 3189 3188 3187 3187 3185 3181 3179 3176 3172 3169 3164 3157 3150 3143 3136 3130 3124 3117 3110 3102 3096 3089 3083
3170 3170 3174 3174 3176 3178 3179 3179 3180 3181 3182 3184 3184 3184 3185 3186 3188 3189 3189 3189 3188 3187 3186 3185 3184 3182 3180 3177 3174 3170 3165 3159 3152 3145 3137 3130 3124 3118 3111 3105 3098 3092 3086 3080
3167 3169 3170 3171 3172 3174 3176 3176 3175 3177 3178 3181 3182 3183 3183 3183 3184 3185 3186 3188 3187 3185 3184 3184 3182 3181 3179 3176 3172 3167 3161 3155 3148 3141 3135 3129 3123 3117 3111 3104 3097 3089 3082 3075
3166 3167 3167 3168 3170 3171 3172 3173 3173 3173 3175 3179 3181 3182 3179 3179 3180 3181 3184 3185 3184 3185 3184 3183 3182 3181 3177 3173 3169 3163 3158 3151 3144 3137 3132 3125 3119 3113 3106 3098 3090 3084 3078 3072
3163 3163 3165 3166 3167 3168 3169 3169 3171 3173 3174 3177 3180 3183 3176 3177 3176 3178 3180 3182 3183 3184 3183 3183 3181 3178 3175 3171 3165 3160 3153 3147 3141 3135 3129 3123 3116 3110 3103 3096 3089 3081 3075 3069
3159 3161 3163 3163 3163 3165 3167 3168 3171 3174 3177 3178 3178 3179 3175 3172 3174 3176 3178 3180 3181 3181 3181 3181 3179 3176 3172 3168 3163 3157 3151 3145 3139 3132 3126 3119 3113 3106 3100 3095 3087 3079 3072 3066
3155 3158 3159 3160 3161 3162 3165 3167 3173 3177 3176 3173 3174 3177 3172 3170 3171 3174 3176 3178 3178 3178 3179 3179 3177 3173 3169 3165 3160 3154 3148 3142 3136 3128 3122 3117 3111 3104 3097 3090 3084 3078 3072 3065
3153 3155 3155 3156 3159 3161 3163 3166 3167 3170 3172 3171 3173 3171 3167 3166 3168 3171 3173 3175 3175 3176 3177 3176 3174 3170 3166 3162 3156 3150 3145 3138 3131 3126 3121 3115 3109 3103 3096 3089 3082 3076 3070 3063
3150 3151 3152 3154 3157 3161 3161 3165 3166 3167 3170 3172 3171 3167 3165 3163 3165 3168 3170 3170 3170 3172 3173 3173 3170 3167 3163 3158 3152 3147 3142 3135 3130 3125 3120 3114 3109 3102 3096 3089 3082 3076 3070 3064
3148 3149 3149 3152 3155 3158 3159 3162 3165 3165 3169 3168 3167 3166 3161 3159 3161 3165 3166 3167 3167 3169 3169 3169 3166 3163 3159 3154 3149 3145 3140 3135 3130 3125 3119 3113 3108 3102 3096 3090 3083 3077 3071 3065
3146 3147 3149 3151 3152 3154 3157 3159 3160 3162 3163 3161 3162 3160 3156 3157 3160 3163 3165 3166 3166 3166 3166 3164 3162 3159 3155 3151 3146 3143 3138 3134 3128 3123 3118 3114 3109 3103 3097 3090 3084 3078 3072 3066
3143 3145 3147 3149 3150 3152 3153 3156 3157 3158 3160 3159 3159 3157 3154 3154 3157 3161 3163 3163 3163 3163 3162 3160 3158 3155 3152 3148 3144 3140 3136 3132 3128 3123 3119 3115 3110 3105 3098 3091 3085 3079 3074 3068
3141 3143 3145 3150 3152 3151 3151 3153 3153 3154 3155 3155 3156 3154 3152 3152 3154 3156 3158 3159 3159 3159 3158 3157 3154 3152 3149 3146 3142 3138 3135 3131 3127 3123 3119 3115 3111 3106 3100 3093 3087 3082 3076 3071
3139 3139 3141 3144 3145 3147 3148 3149 3151 3152 3153 3152 3152 3151 3149 3150 3151 3153 3154 3155 3156 3156 3155 3153 3151 3149 3146 3143 3140 3136 3133 3131 3127 3124 3120 3115 3111 3107 3101 3095 3089 3084 3079 3073
3137 3138 3140 3141 3144 3144 3145 3147 3149 3150 3150 3151 3151 3149 3148 3149 3150 3151 3153 3153 3154 3154 3152 3150 3148 3146 3143 3141 3138 3135 3132 3130 3127 3124 3120 3116 3112 3108 3102 3097 3092 3087 3081 3075
3133 3135 3137 3143 3143 3143 3144 3146 3148 3148 3148 3149 3148 3147 3147 3147 3147 3148 3150 3151 3151 3151 3148 3146 3145 3143 3141 3139 3136 3133 3131 3129 3126 3123 3119 3116 3112 3108 3104 3099 3094 3089 3084 3078
3132 3135 3137 3139 3142 3144 3146 3145 3146 3146 3147 3147 3146 3146 3145 3145 3145 3146 3148 3148 3148 3147 3145 3143 3142 3141 3139 3137 3134 3132 3130 3128 3125 3122 3119 3116 3112 3108 3105 3101 3096 3091 3086 3080
3131 3134 3137 3140 3143 3145 3141 3142 3143 3144 3144 3144 3144 3143 3143 3143 3143 3144 3145 3145 3145 3143 3141 3140 3139 3138 3136 3135 3133 3131 3129 3126 3123 3120 3118 3115 3112 3108 3104 3101 3097 3092 3086 3081
3130 3133 3137 3141 3141 3140 3138 3139 3141 3141 3143 3142 3142 3141 3141 3140 3140 3141 3141 3141 3141 3140 3138 3137 3136 3136 3135 3133 3131 3129 3127 3125 3122 3120 3117 3114 3111 3108 3105 3101 3096 3092 3088 3083
3128 3131 3136 3137 3137 3137 3134 3136 3138 3139 3139 3139 3138 3138 3138 3138 3138 3139 3138 3137 3137 3136 3135 3134 3134 3133 3133 3131 3130 3128 3126 3124 3121 3119 3116 3114 3111 3108 3104 3100 3096 3092 3087 3083
3127 3129 3131 3133 3134 3133 3132 3133 3135 3139 3141 3136 3137 3137 3136 3136 3136 3135 3134 3134 3134 3133 3132 3132 3132 3132 3131 3129 3128 3127 3124 3122 3120 3118 3115 3112 3110 3107 3104 3100 3096 3092 3088 3084
3125 3127 3128 3130 3131 3131 3130 3131 3134 3135 3133 3134 3135 3134 3133 3133 3133 3132 3131 3131 3130 3130 3130 3130 3130 3130 3129 3128 3127 3125 3123 3121 3118 3116 3114 3111 3109 3106 3103 3100 3096 3093 3088 3085
3124 3125 3124 3127 3127 3127 3127 3128 3130 3130 3130 3131 3132 3131 3131 3131 3130 3129 3128 3128 3128 3129 3129 3128 3128 3128 3128 3127 3125 3123 3121 3119 3117 3115 3113 3110 3107 3105 3102 3099 3095 3092 3088 3084
3121 3122 3123 3124 3125 3125 3125 3126 3126 3126 3127 3129 3129 3128 3128 3128 3127 3126 3126 3126 3127 3127 3127 3126 3126 3126 3126 3125 3123 3122 3120 3118 3116 3113 3111 3108 3106 3103 3100 3097 3094 3091 3087 3082
3119 3120 3122 3122 3123 3123 3123 3122 3122 3123 3125 3126 3126 3126 3125 3125 3125 3124 3124 3124 3124 3125 3125 3125 3124 3124 3124 3123 3121 3120 3118 3116 3114 3112 3109 3107 3104 3101 3098 3095 3092 3089 3085 3082
3116 3118 3119 3120 3121 3121 3120 3119 3120 3121 3122 3123 3123 3123 3123 3123 3123 3122 3122 3123 3123 3124 3124 3123 3122 3122 3123 3121 3120 3118 3116 3114 3112 3110 3107 3105 3102 3099 3097 3094 3090 3087 3083 3080